Location: Unspecified
(0.0000°N, 0.0000°E)
Time: 20:22:34
(UTC+00:00)

Explorer 11/Cluster Stage 4 - Visible Passes

Search period start: 23 September 2014 00:00
Search period end: 03 October 2014 00:00
Orbit: 468 x 1283 km, 28.8° (Epoch: 22 September)

Date Brightness Start Highest point End Pass type
(mag) Time Alt. Az. Time Alt. Az. Time Alt. Az.
23 Sep 8.8 05:10:06 10° SSW 05:13:44 17° SSE 05:16:56 10° ESE visible
23 Sep 7.7 19:44:31 10° WNW 19:51:20 57° SSW 19:53:22 45° SSE visible
24 Sep 8.6 05:02:35 10° SSW 05:07:15 22° SSE 05:11:12 10° ESE visible
24 Sep 8.0 19:38:06 10° W 19:44:35 46° SSW 19:47:36 32° SSE visible
25 Sep 9.5 03:10:43 10° SSE 03:10:43 10° SSE 03:11:26 10° SSE visible
25 Sep 8.3 04:55:13 10° SSW 05:00:42 29° SSE 05:05:14 10° E visible
25 Sep 8.3 19:31:47 10° W 19:37:51 37° SSW 19:41:50 23° SSE visible
26 Sep 9.4 03:04:43 13° SSE 03:04:43 13° SSE 03:06:59 10° SE visible
26 Sep 7.9 04:47:57 10° SW 04:54:07 38° SSE 04:59:05 10° E visible
26 Sep 8.6 19:25:35 10° W 19:31:11 30° SSW 19:36:02 16° SSE visible
27 Sep 9.3 02:58:48 16° SE 02:58:48 16° SE 03:01:33 10° ESE visible
27 Sep 7.5 04:41:14 12° SW 04:47:28 49° SSE 04:52:47 10° ENE visible
27 Sep 8.9 19:19:32 10° WSW 19:24:33 24° SSW 19:30:11 11° SSE visible
28 Sep 9.2 02:52:56 19° SE 02:52:56 19° SE 02:55:47 10° ESE visible
28 Sep 7.2 04:35:22 18° SW 04:40:46 64° SSE 04:46:22 10° ENE visible
28 Sep 9.1 19:13:40 10° WSW 19:17:58 19° SSW 19:22:49 10° SSE visible
29 Sep 9.2 02:47:06 20° ESE 02:47:06 20° ESE 02:49:47 10° ESE visible
29 Sep 7.0 04:29:33 25° SW 04:34:01 81° SSE 04:39:51 10° ENE visible
29 Sep 9.3 19:08:04 10° SW 19:11:25 15° SSW 19:15:06 10° SSE visible
30 Sep 9.2 02:41:18 20° ESE 02:41:18 20° ESE 02:43:38 10° E visible
30 Sep 6.9 04:23:44 34° WSW 04:27:13 81° NNW 04:33:15 10° NE visible
30 Sep 9.4 19:03:06 10° SSW 19:04:55 11° SSW 19:06:49 10° S visible
01 Oct 9.4 02:35:29 19° E 02:35:29 19° E 02:37:19 10° E visible
01 Oct 7.1 04:17:55 42° W 04:20:22 66° NNW 04:26:33 10° NE visible
02 Oct 9.5 02:29:38 16° E 02:29:38 16° E 02:30:53 10° ENE visible
02 Oct 7.3 04:12:04 47° WNW 04:13:30 53° NNW 04:19:45 10° NE visible
